Year,Month,Day,Hour,Minute,Value (Times are PST for temperature in C)
2014,11,18,00,00,1.80
2014,11,18,00,01,1.80
2014,11,18,00,02,1.80
2014,11,18,00,03,1.80
2014,11,18,00,04,1.80
2014,11,18,00,05,1.80
2014,11,18,00,06,1.80
2014,11,18,00,07,1.80
2014,11,18,00,08,1.80
2014,11,18,00,09,1.80
2014,11,18,00,10,1.80
2014,11,18,00,11,1.80
2014,11,18,00,12,1.80
2014,11,18,00,13,1.90
2014,11,18,00,14,1.90
2014,11,18,00,15,1.90
2014,11,18,00,16,2.00
2014,11,18,00,17,2.00
2014,11,18,00,18,2.00
2014,11,18,00,19,2.00
2014,11,18,00,20,2.00
2014,11,18,00,21,1.90
2014,11,18,00,22,1.90
2014,11,18,00,23,1.90
2014,11,18,00,24,1.90
2014,11,18,00,25,1.90
2014,11,18,00,26,1.90
2014,11,18,00,27,1.90
2014,11,18,00,28,1.90
2014,11,18,00,29,1.90
2014,11,18,00,30,2.00
2014,11,18,00,31,2.00
2014,11,18,00,32,2.00
2014,11,18,00,33,2.00
2014,11,18,00,34,2.00
2014,11,18,00,35,2.00
2014,11,18,00,36,2.10
2014,11,18,00,37,2.10
2014,11,18,00,38,2.10
2014,11,18,00,39,2.10
2014,11,18,00,40,2.10
2014,11,18,00,41,2.10
2014,11,18,00,42,2.20
2014,11,18,00,43,2.20
2014,11,18,00,44,2.20
2014,11,18,00,45,2.20
2014,11,18,00,46,2.30
2014,11,18,00,47,2.30
2014,11,18,00,48,2.30
2014,11,18,00,49,2.30
2014,11,18,00,50,2.30
2014,11,18,00,51,2.30
2014,11,18,00,52,2.40
2014,11,18,00,53,2.40
2014,11,18,00,54,2.50
2014,11,18,00,55,2.60
2014,11,18,00,56,2.60
2014,11,18,00,57,2.70
2014,11,18,00,58,2.70
2014,11,18,00,59,2.70
2014,11,18,01,00,2.80
2014,11,18,01,01,2.80
2014,11,18,01,02,2.80
2014,11,18,01,03,2.90
2014,11,18,01,04,2.90
2014,11,18,01,05,2.90
2014,11,18,01,06,3.00
2014,11,18,01,07,3.00
2014,11,18,01,08,3.00
2014,11,18,01,09,3.00
2014,11,18,01,10,3.00
2014,11,18,01,11,3.00
2014,11,18,01,12,3.00
2014,11,18,01,13,3.00
2014,11,18,01,14,3.00
2014,11,18,01,15,3.00
2014,11,18,01,16,3.00
2014,11,18,01,17,3.00
2014,11,18,01,18,2.90
2014,11,18,01,19,2.90
2014,11,18,01,20,2.90
2014,11,18,01,21,2.90
2014,11,18,01,22,2.90
2014,11,18,01,23,2.90
2014,11,18,01,24,2.90
2014,11,18,01,25,2.90
2014,11,18,01,26,2.90
2014,11,18,01,27,2.90
2014,11,18,01,28,2.90
2014,11,18,01,29,2.90
2014,11,18,01,30,2.90
2014,11,18,01,31,2.90
2014,11,18,01,32,2.90
2014,11,18,01,33,2.90
2014,11,18,01,34,2.90
2014,11,18,01,35,2.90
2014,11,18,01,36,2.90
2014,11,18,01,37,2.90
2014,11,18,01,38,2.90
2014,11,18,01,39,2.90
2014,11,18,01,40,2.90
2014,11,18,01,41,2.90
2014,11,18,01,42,2.90
2014,11,18,01,43,2.90
2014,11,18,01,44,2.90
2014,11,18,01,45,2.90
2014,11,18,01,46,2.90
2014,11,18,01,47,2.90
2014,11,18,01,48,2.90
2014,11,18,01,49,3.00
2014,11,18,01,50,3.00
2014,11,18,01,51,3.00
2014,11,18,01,52,3.10
2014,11,18,01,53,3.10
2014,11,18,01,54,3.10
2014,11,18,01,55,3.20
2014,11,18,01,56,3.20
2014,11,18,01,57,3.30
2014,11,18,01,58,3.40
2014,11,18,01,59,3.50
2014,11,18,02,00,3.50
2014,11,18,02,01,3.50
2014,11,18,02,02,3.50
2014,11,18,02,03,3.40
2014,11,18,02,04,3.40
2014,11,18,02,05,3.30
2014,11,18,02,06,3.40
2014,11,18,02,07,3.40
2014,11,18,02,08,3.50
2014,11,18,02,09,3.50
2014,11,18,02,10,3.50
2014,11,18,02,11,3.60
2014,11,18,02,12,3.60
2014,11,18,02,13,3.60
2014,11,18,02,14,3.60
2014,11,18,02,15,3.60
2014,11,18,02,16,3.70
2014,11,18,02,17,3.70
2014,11,18,02,18,3.70
2014,11,18,02,19,3.70
2014,11,18,02,20,3.70
2014,11,18,02,21,3.70
2014,11,18,02,22,3.70
2014,11,18,02,23,3.70
2014,11,18,02,24,3.70
2014,11,18,02,25,3.70
2014,11,18,02,26,3.80
2014,11,18,02,27,3.80
2014,11,18,02,28,3.80
2014,11,18,02,29,3.80
2014,11,18,02,30,3.90
2014,11,18,02,31,3.90
2014,11,18,02,32,3.90
2014,11,18,02,33,3.80
2014,11,18,02,34,3.80
2014,11,18,02,35,3.80
2014,11,18,02,36,3.70
2014,11,18,02,37,3.70
2014,11,18,02,38,3.70
2014,11,18,02,39,3.70
2014,11,18,02,40,3.70
2014,11,18,02,41,3.70
2014,11,18,02,42,3.70
2014,11,18,02,43,3.70
2014,11,18,02,44,3.70
2014,11,18,02,45,3.70
2014,11,18,02,46,3.60
2014,11,18,02,47,3.60
2014,11,18,02,48,3.60
2014,11,18,02,49,3.60
2014,11,18,02,50,3.60
2014,11,18,02,51,3.60
2014,11,18,02,52,3.60
2014,11,18,02,53,3.60
2014,11,18,02,54,3.60
2014,11,18,02,55,3.60
2014,11,18,02,56,3.60
2014,11,18,02,57,3.60
2014,11,18,02,58,3.60
2014,11,18,02,59,3.60
2014,11,18,03,00,3.60
2014,11,18,03,01,3.60
2014,11,18,03,02,3.60
2014,11,18,03,03,3.60
2014,11,18,03,04,3.60
2014,11,18,03,05,3.60
2014,11,18,03,06,3.60
2014,11,18,03,07,3.60
2014,11,18,03,08,3.50
2014,11,18,03,09,3.50
2014,11,18,03,10,3.50
2014,11,18,03,11,3.50
2014,11,18,03,12,3.50
2014,11,18,03,13,3.50
2014,11,18,03,14,3.50
2014,11,18,03,15,3.50
2014,11,18,03,16,3.50
2014,11,18,03,17,3.50
2014,11,18,03,18,3.50
2014,11,18,03,19,3.60
2014,11,18,03,20,3.60
2014,11,18,03,21,3.70
2014,11,18,03,22,3.70
2014,11,18,03,23,3.80
2014,11,18,03,24,3.80
2014,11,18,03,25,3.80
2014,11,18,03,26,3.80
2014,11,18,03,27,3.90
2014,11,18,03,28,3.90
2014,11,18,03,29,3.80
2014,11,18,03,30,3.90
2014,11,18,03,31,3.80
2014,11,18,03,32,3.90
2014,11,18,03,33,3.90
2014,11,18,03,34,3.90
2014,11,18,03,35,3.90
2014,11,18,03,36,3.90
2014,11,18,03,37,3.90
2014,11,18,03,38,4.00
2014,11,18,03,39,4.00
2014,11,18,03,40,4.00
2014,11,18,03,41,4.10
2014,11,18,03,42,4.10
2014,11,18,03,43,4.10
2014,11,18,03,44,4.10
2014,11,18,03,45,4.10
2014,11,18,03,46,4.10
2014,11,18,03,47,4.20
2014,11,18,03,48,4.20
2014,11,18,03,49,4.20
2014,11,18,03,50,4.20
2014,11,18,03,51,4.20
2014,11,18,03,52,4.20
2014,11,18,03,53,4.20
2014,11,18,03,54,4.20
2014,11,18,03,55,4.20
2014,11,18,03,56,4.20
2014,11,18,03,57,4.20
2014,11,18,03,58,4.30
2014,11,18,03,59,4.30
2014,11,18,04,00,4.40
2014,11,18,04,01,4.40
2014,11,18,04,02,4.40
2014,11,18,04,03,4.40
2014,11,18,04,04,4.40
2014,11,18,04,05,4.30
2014,11,18,04,06,4.30
2014,11,18,04,07,4.30
2014,11,18,04,08,4.30
2014,11,18,04,09,4.20
2014,11,18,04,10,4.20
2014,11,18,04,11,4.20
2014,11,18,04,12,4.20
2014,11,18,04,13,4.20
2014,11,18,04,14,4.20
2014,11,18,04,15,4.20
2014,11,18,04,16,4.20
2014,11,18,04,17,4.20
2014,11,18,04,18,4.20
2014,11,18,04,19,4.20
2014,11,18,04,20,4.20
2014,11,18,04,21,4.20
2014,11,18,04,22,4.20
2014,11,18,04,23,4.20
2014,11,18,04,24,4.30
2014,11,18,04,25,4.30
2014,11,18,04,26,4.30
2014,11,18,04,27,4.30
2014,11,18,04,28,4.30
2014,11,18,04,29,4.30
2014,11,18,04,30,4.30
2014,11,18,04,31,4.30
2014,11,18,04,32,4.30
2014,11,18,04,33,4.30
2014,11,18,04,34,4.30
2014,11,18,04,35,4.30
2014,11,18,04,36,4.30
2014,11,18,04,37,4.30
2014,11,18,04,38,4.30
2014,11,18,04,39,4.30
2014,11,18,04,40,4.30
2014,11,18,04,41,4.30
2014,11,18,04,42,4.20
2014,11,18,04,43,4.20
2014,11,18,04,44,4.20
2014,11,18,04,45,4.20
2014,11,18,04,46,4.20
2014,11,18,04,47,4.20
2014,11,18,04,48,4.10
2014,11,18,04,49,4.10
2014,11,18,04,50,4.10
2014,11,18,04,51,4.10
2014,11,18,04,52,4.00
2014,11,18,04,53,4.00
2014,11,18,04,54,4.00
2014,11,18,04,55,3.90
2014,11,18,04,56,3.90
2014,11,18,04,57,3.90
2014,11,18,04,58,3.80
2014,11,18,04,59,3.80
2014,11,18,05,00,3.80
2014,11,18,05,01,3.80
2014,11,18,05,02,3.80
2014,11,18,05,03,3.80
2014,11,18,05,04,3.80
2014,11,18,05,05,3.70
2014,11,18,05,06,3.70
2014,11,18,05,07,3.70
2014,11,18,05,08,3.70
2014,11,18,05,09,3.70
2014,11,18,05,10,3.70
2014,11,18,05,11,3.70
2014,11,18,05,12,3.70
2014,11,18,05,13,3.70
2014,11,18,05,14,3.70
2014,11,18,05,15,3.70
2014,11,18,05,16,3.70
2014,11,18,05,17,3.70
2014,11,18,05,18,3.70
2014,11,18,05,19,3.70
2014,11,18,05,20,3.70
2014,11,18,05,21,3.70
2014,11,18,05,22,3.70
2014,11,18,05,23,3.70
2014,11,18,05,24,3.70
2014,11,18,05,25,3.70
2014,11,18,05,26,3.70
2014,11,18,05,27,3.70
2014,11,18,05,28,3.70
2014,11,18,05,29,3.70
2014,11,18,05,30,3.80
2014,11,18,05,31,3.80
2014,11,18,05,32,3.70
2014,11,18,05,33,3.70
2014,11,18,05,34,3.70
2014,11,18,05,35,3.70
2014,11,18,05,36,3.70
2014,11,18,05,37,3.70
2014,11,18,05,38,3.70
2014,11,18,05,39,3.70
2014,11,18,05,40,3.70
2014,11,18,05,41,3.70
2014,11,18,05,42,3.70
2014,11,18,05,43,3.70
2014,11,18,05,44,3.70
2014,11,18,05,45,3.70
2014,11,18,05,46,3.70
2014,11,18,05,47,3.80
2014,11,18,05,48,3.80
2014,11,18,05,49,3.80
2014,11,18,05,50,3.80
2014,11,18,05,51,3.80
2014,11,18,05,52,3.80
2014,11,18,05,53,3.80
2014,11,18,05,54,3.80
2014,11,18,05,55,3.80
2014,11,18,05,56,3.80
2014,11,18,05,57,3.80
2014,11,18,05,58,3.80
2014,11,18,05,59,3.80
2014,11,18,06,00,3.80
2014,11,18,06,01,3.80
2014,11,18,06,02,3.90
2014,11,18,06,03,3.80
2014,11,18,06,04,3.90
2014,11,18,06,05,3.90
2014,11,18,06,06,3.90
2014,11,18,06,07,3.80
2014,11,18,06,08,3.80
2014,11,18,06,09,3.80
2014,11,18,06,10,3.80
2014,11,18,06,11,3.80
2014,11,18,06,12,3.80
2014,11,18,06,13,3.80
2014,11,18,06,14,3.80
2014,11,18,06,15,3.80
2014,11,18,06,16,3.80
2014,11,18,06,17,3.90
2014,11,18,06,18,3.90
2014,11,18,06,19,3.90
2014,11,18,06,20,3.80
2014,11,18,06,21,3.80
2014,11,18,06,22,3.80
2014,11,18,06,23,3.80
2014,11,18,06,24,3.70
2014,11,18,06,25,3.70
2014,11,18,06,26,3.70
2014,11,18,06,27,3.70
2014,11,18,06,28,3.60
2014,11,18,06,29,3.60
2014,11,18,06,30,3.60
2014,11,18,06,31,3.60
2014,11,18,06,32,3.60
2014,11,18,06,33,3.60
2014,11,18,06,34,3.60
2014,11,18,06,35,3.60
2014,11,18,06,36,3.60
2014,11,18,06,37,3.60
2014,11,18,06,38,3.60
2014,11,18,06,39,3.60
2014,11,18,06,40,3.50
2014,11,18,06,41,3.50
2014,11,18,06,42,3.50
2014,11,18,06,43,3.50
2014,11,18,06,44,3.50
2014,11,18,06,45,3.50
2014,11,18,06,46,3.50
2014,11,18,06,47,3.50
2014,11,18,06,48,3.50
2014,11,18,06,49,3.50
2014,11,18,06,50,3.50
2014,11,18,06,51,3.50
2014,11,18,06,52,3.50
2014,11,18,06,53,3.50
2014,11,18,06,54,3.50
2014,11,18,06,55,3.50
2014,11,18,06,56,3.50
2014,11,18,06,57,3.50
2014,11,18,06,58,3.50
2014,11,18,06,59,3.60
2014,11,18,07,00,3.60
2014,11,18,07,01,3.60
2014,11,18,07,02,3.60
2014,11,18,07,03,3.60
2014,11,18,07,04,3.60
2014,11,18,07,05,3.60
2014,11,18,07,06,3.60
2014,11,18,07,07,3.60
2014,11,18,07,08,3.70
2014,11,18,07,09,3.70
2014,11,18,07,10,3.70
2014,11,18,07,11,3.70
2014,11,18,07,12,3.70
2014,11,18,07,13,3.60
2014,11,18,07,14,3.60
2014,11,18,07,15,3.60
2014,11,18,07,16,3.60
2014,11,18,07,17,3.60
2014,11,18,07,18,3.60
2014,11,18,07,19,3.60
2014,11,18,07,20,3.60
2014,11,18,07,21,3.60
2014,11,18,07,22,3.60
2014,11,18,07,23,3.60
2014,11,18,07,24,3.60
2014,11,18,07,25,3.60
2014,11,18,07,26,3.60
2014,11,18,07,27,3.60
2014,11,18,07,28,3.50
2014,11,18,07,29,3.50
2014,11,18,07,30,3.60
2014,11,18,07,31,3.60
2014,11,18,07,32,3.60
2014,11,18,07,33,3.60
2014,11,18,07,34,3.60
2014,11,18,07,35,3.60
2014,11,18,07,36,3.60
2014,11,18,07,37,3.60
2014,11,18,07,38,3.60
2014,11,18,07,39,3.50
2014,11,18,07,40,3.50
2014,11,18,07,41,3.50
2014,11,18,07,42,3.50
2014,11,18,07,43,3.50
2014,11,18,07,44,3.50
2014,11,18,07,45,3.40
2014,11,18,07,46,3.40
2014,11,18,07,47,3.40
2014,11,18,07,48,3.40
2014,11,18,07,49,3.40
2014,11,18,07,50,3.40
2014,11,18,07,51,3.40
2014,11,18,07,52,3.40
2014,11,18,07,53,3.40
2014,11,18,07,54,3.40
2014,11,18,07,55,3.40
2014,11,18,07,56,3.40
2014,11,18,07,57,3.40
2014,11,18,07,58,3.40
2014,11,18,07,59,3.40
2014,11,18,08,00,3.50
2014,11,18,08,01,3.50
2014,11,18,08,02,3.50
2014,11,18,08,03,3.50
2014,11,18,08,04,3.60
2014,11,18,08,05,3.60
2014,11,18,08,06,3.60
2014,11,18,08,07,3.60
2014,11,18,08,08,3.60
2014,11,18,08,09,3.60
2014,11,18,08,10,3.60
2014,11,18,08,11,3.60
2014,11,18,08,12,3.60
2014,11,18,08,13,3.60
2014,11,18,08,14,3.60
2014,11,18,08,15,3.60
2014,11,18,08,16,3.60
2014,11,18,08,17,3.60
2014,11,18,08,18,3.60
2014,11,18,08,19,3.60
2014,11,18,08,20,3.60
2014,11,18,08,21,3.60
2014,11,18,08,22,3.60
2014,11,18,08,23,3.60
2014,11,18,08,24,3.70
2014,11,18,08,25,3.70
2014,11,18,08,26,3.70
2014,11,18,08,27,3.70
2014,11,18,08,28,3.70
2014,11,18,08,29,3.60
2014,11,18,08,30,3.70
2014,11,18,08,31,3.70
2014,11,18,08,32,3.70
2014,11,18,08,33,3.70
2014,11,18,08,34,3.70
2014,11,18,08,35,3.70
2014,11,18,08,36,3.70
2014,11,18,08,37,3.70
2014,11,18,08,38,3.70
2014,11,18,08,39,3.70
2014,11,18,08,40,3.70
2014,11,18,08,41,3.70
2014,11,18,08,42,3.70
2014,11,18,08,43,3.70
2014,11,18,08,44,3.70
2014,11,18,08,45,3.70
2014,11,18,08,46,3.70
2014,11,18,08,47,3.70
2014,11,18,08,48,3.70
2014,11,18,08,49,3.70
2014,11,18,08,50,3.70
2014,11,18,08,51,3.70
2014,11,18,08,52,3.70
2014,11,18,08,53,3.70
2014,11,18,08,54,3.70
2014,11,18,08,55,3.70
2014,11,18,08,56,3.70
2014,11,18,08,57,3.70
2014,11,18,08,58,3.70
2014,11,18,08,59,3.70
2014,11,18,09,00,3.70
2014,11,18,09,01,3.70
2014,11,18,09,02,3.70
2014,11,18,09,03,3.80
2014,11,18,09,04,3.80
2014,11,18,09,05,3.80
2014,11,18,09,06,3.80
2014,11,18,09,07,3.80
2014,11,18,09,08,3.80
2014,11,18,09,09,3.80
2014,11,18,09,10,3.80
2014,11,18,09,11,3.80
2014,11,18,09,12,3.80
2014,11,18,09,13,3.80
2014,11,18,09,14,3.90
2014,11,18,09,15,3.90
2014,11,18,09,16,3.90
2014,11,18,09,17,3.90
2014,11,18,09,18,3.90
2014,11,18,09,19,4.00
2014,11,18,09,20,4.00
2014,11,18,09,21,4.00
2014,11,18,09,22,4.00
2014,11,18,09,23,4.00
2014,11,18,09,24,4.10
2014,11,18,09,25,4.10
2014,11,18,09,26,4.10
2014,11,18,09,27,4.10
2014,11,18,09,28,4.10
2014,11,18,09,29,4.10
2014,11,18,09,30,4.10
2014,11,18,09,31,4.20
2014,11,18,09,32,4.20
2014,11,18,09,33,4.20
2014,11,18,09,34,4.20
2014,11,18,09,35,4.20
2014,11,18,09,36,4.20
2014,11,18,09,37,4.20
2014,11,18,09,38,4.20
2014,11,18,09,39,4.20
2014,11,18,09,40,4.30
2014,11,18,09,41,4.30
2014,11,18,09,42,4.30
2014,11,18,09,43,4.30
2014,11,18,09,44,4.30
2014,11,18,09,45,4.40
2014,11,18,09,46,4.40
2014,11,18,09,47,4.40
2014,11,18,09,48,4.40
2014,11,18,09,49,4.40
2014,11,18,09,50,4.50
2014,11,18,09,51,4.50
2014,11,18,09,52,4.60
2014,11,18,09,53,4.60
2014,11,18,09,54,4.60
2014,11,18,09,55,4.60
2014,11,18,09,56,4.60
2014,11,18,09,57,4.70
2014,11,18,09,58,4.70
2014,11,18,09,59,4.70
2014,11,18,10,00,4.70
2014,11,18,10,01,4.70
2014,11,18,10,02,4.70
2014,11,18,10,03,4.70
2014,11,18,10,04,4.70
2014,11,18,10,05,4.80
2014,11,18,10,06,4.80
2014,11,18,10,07,4.80
2014,11,18,10,08,4.80
2014,11,18,10,09,4.80
2014,11,18,10,10,4.80
2014,11,18,10,11,4.90
2014,11,18,10,12,4.90
2014,11,18,10,13,4.90
2014,11,18,10,14,4.90
2014,11,18,10,15,4.90
2014,11,18,10,16,5.00
2014,11,18,10,17,5.00
2014,11,18,10,18,5.00
2014,11,18,10,19,5.00
2014,11,18,10,20,5.10
2014,11,18,10,21,5.10
2014,11,18,10,22,5.10
2014,11,18,10,23,5.10
2014,11,18,10,24,5.20
2014,11,18,10,25,5.20
2014,11,18,10,26,5.30
2014,11,18,10,27,5.30
2014,11,18,10,28,5.30
2014,11,18,10,29,5.30
2014,11,18,10,30,5.40
2014,11,18,10,31,5.40
2014,11,18,10,32,5.50
2014,11,18,10,33,5.50
2014,11,18,10,34,5.50
2014,11,18,10,35,5.60
2014,11,18,10,36,5.60
2014,11,18,10,37,5.70
2014,11,18,10,38,5.70
2014,11,18,10,39,5.80
2014,11,18,10,40,5.80
2014,11,18,10,41,5.90
2014,11,18,10,42,6.00
2014,11,18,10,43,6.10
2014,11,18,10,44,6.20
2014,11,18,10,45,6.30
2014,11,18,10,46,6.30
2014,11,18,10,47,6.40
2014,11,18,10,48,6.50
2014,11,18,10,49,6.50
2014,11,18,10,50,6.50
2014,11,18,10,51,6.60
2014,11,18,10,52,6.60
2014,11,18,10,53,6.60
2014,11,18,10,54,6.60
2014,11,18,10,55,6.70
2014,11,18,10,56,6.70
2014,11,18,10,57,6.70
2014,11,18,10,58,6.70
2014,11,18,10,59,6.70
2014,11,18,11,00,6.70
2014,11,18,11,01,6.80
2014,11,18,11,02,6.80
2014,11,18,11,03,6.80
2014,11,18,11,04,6.80
2014,11,18,11,05,6.90
2014,11,18,11,06,6.90
2014,11,18,11,07,6.90
2014,11,18,11,08,6.90
2014,11,18,11,09,7.00
2014,11,18,11,10,7.00
2014,11,18,11,11,7.10
2014,11,18,11,12,7.10
2014,11,18,11,13,7.10
2014,11,18,11,14,7.20
2014,11,18,11,15,7.20
2014,11,18,11,16,7.20
2014,11,18,11,17,7.20
2014,11,18,11,18,7.30
2014,11,18,11,19,7.30
2014,11,18,11,20,7.30
2014,11,18,11,21,7.40
2014,11,18,11,22,7.40
2014,11,18,11,23,7.50
2014,11,18,11,24,7.50
2014,11,18,11,25,7.60
2014,11,18,11,26,7.60
2014,11,18,11,27,7.70
2014,11,18,11,28,7.70
2014,11,18,11,29,7.70
2014,11,18,11,30,7.70
2014,11,18,11,31,7.80
2014,11,18,11,32,7.80
2014,11,18,11,33,7.80
2014,11,18,11,34,7.80
2014,11,18,11,35,7.90
2014,11,18,11,36,7.90
2014,11,18,11,37,7.90
2014,11,18,11,38,7.90
2014,11,18,11,39,8.00
2014,11,18,11,40,8.00
2014,11,18,11,41,8.00
2014,11,18,11,42,8.00
2014,11,18,11,43,8.10
2014,11,18,11,44,8.10
2014,11,18,11,45,8.10
2014,11,18,11,46,8.10
2014,11,18,11,47,8.10
2014,11,18,11,48,8.20
2014,11,18,11,49,8.20
2014,11,18,11,50,8.20
2014,11,18,11,51,8.20
2014,11,18,11,52,8.20
2014,11,18,11,53,8.30
2014,11,18,11,54,8.30
2014,11,18,11,55,8.30
2014,11,18,11,56,8.30
2014,11,18,11,57,8.30
2014,11,18,11,58,8.30
2014,11,18,11,59,8.30
2014,11,18,12,00,8.40
2014,11,18,12,01,8.40
2014,11,18,12,02,8.40
2014,11,18,12,03,8.40
2014,11,18,12,04,8.40
2014,11,18,12,05,8.40
2014,11,18,12,06,8.40
2014,11,18,12,07,8.40
2014,11,18,12,08,8.50
2014,11,18,12,09,8.50
2014,11,18,12,10,8.50
2014,11,18,12,11,8.50
2014,11,18,12,12,8.50
2014,11,18,12,13,8.60
2014,11,18,12,14,8.60
2014,11,18,12,15,8.60
2014,11,18,12,16,8.70
2014,11,18,12,17,8.70
2014,11,18,12,18,8.70
2014,11,18,12,19,8.70
2014,11,18,12,20,8.70
2014,11,18,12,21,8.70
2014,11,18,12,22,8.70
2014,11,18,12,23,8.70
2014,11,18,12,24,8.70
2014,11,18,12,25,8.70
2014,11,18,12,26,8.80
2014,11,18,12,27,8.80
2014,11,18,12,28,8.80
2014,11,18,12,29,8.80
2014,11,18,12,30,8.80
2014,11,18,12,31,8.80
2014,11,18,12,32,8.80
2014,11,18,12,33,8.80
2014,11,18,12,34,8.90
2014,11,18,12,35,8.90
2014,11,18,12,36,8.90
2014,11,18,12,37,9.00
2014,11,18,12,38,9.00
2014,11,18,12,39,9.10
2014,11,18,12,40,9.10
2014,11,18,12,41,9.10
2014,11,18,12,42,9.20
2014,11,18,12,43,9.20
2014,11,18,12,44,9.20
2014,11,18,12,45,9.20
2014,11,18,12,46,9.30
2014,11,18,12,47,9.30
2014,11,18,12,48,9.30
2014,11,18,12,49,9.40
2014,11,18,12,50,9.40
2014,11,18,12,51,9.40
2014,11,18,12,52,9.50
2014,11,18,12,53,9.50
2014,11,18,12,54,9.50
2014,11,18,12,55,9.50
2014,11,18,12,56,9.60
2014,11,18,12,57,9.60
2014,11,18,12,58,9.60
2014,11,18,12,59,9.60
2014,11,18,13,00,9.60
2014,11,18,13,01,9.60
2014,11,18,13,02,9.60
2014,11,18,13,03,9.60
2014,11,18,13,04,9.70
2014,11,18,13,05,9.70
2014,11,18,13,06,9.70
2014,11,18,13,07,9.70
2014,11,18,13,08,9.70
2014,11,18,13,09,9.70
2014,11,18,13,10,9.60
2014,11,18,13,11,9.60
2014,11,18,13,12,9.60
2014,11,18,13,13,9.60
2014,11,18,13,14,9.70
2014,11,18,13,15,9.70
2014,11,18,13,16,9.70
2014,11,18,13,17,9.80
2014,11,18,13,18,9.80
2014,11,18,13,19,9.80
2014,11,18,13,20,9.90
2014,11,18,13,21,9.90
2014,11,18,13,22,10.00
2014,11,18,13,23,10.00
2014,11,18,13,24,10.10
2014,11,18,13,25,10.20
2014,11,18,13,26,10.20
2014,11,18,13,27,10.20
2014,11,18,13,28,10.30
2014,11,18,13,29,10.30
2014,11,18,13,30,10.30
2014,11,18,13,31,10.40
2014,11,18,13,32,10.40
2014,11,18,13,33,10.40
2014,11,18,13,34,10.40
2014,11,18,13,35,10.40
2014,11,18,13,36,10.40
2014,11,18,13,37,10.40
2014,11,18,13,38,10.40
2014,11,18,13,39,10.30
2014,11,18,13,40,10.30
2014,11,18,13,41,10.30
2014,11,18,13,42,10.30
2014,11,18,13,43,10.30
2014,11,18,13,44,10.30
2014,11,18,13,45,10.30
2014,11,18,13,46,10.30
2014,11,18,13,47,10.30
2014,11,18,13,48,10.30
2014,11,18,13,49,10.30
2014,11,18,13,50,10.30
2014,11,18,13,51,10.40
2014,11,18,13,52,10.40
2014,11,18,13,53,10.40
2014,11,18,13,54,10.40
2014,11,18,13,55,10.40
2014,11,18,13,56,10.40
2014,11,18,13,57,10.40
2014,11,18,13,58,10.50
2014,11,18,13,59,10.50
2014,11,18,14,00,10.50
2014,11,18,14,01,10.50
2014,11,18,14,02,10.40
2014,11,18,14,03,10.30
2014,11,18,14,04,10.20
2014,11,18,14,05,10.10
2014,11,18,14,06,10.00
2014,11,18,14,07,9.90
2014,11,18,14,08,9.80
2014,11,18,14,09,9.70
2014,11,18,14,10,9.70
2014,11,18,14,11,9.60
2014,11,18,14,12,9.60
2014,11,18,14,13,9.50
2014,11,18,14,14,9.50
2014,11,18,14,15,9.50
2014,11,18,14,16,9.50
2014,11,18,14,17,9.50
2014,11,18,14,18,9.50
2014,11,18,14,19,9.50
2014,11,18,14,20,9.60
2014,11,18,14,21,9.60
2014,11,18,14,22,9.60
2014,11,18,14,23,9.60
2014,11,18,14,24,9.60
2014,11,18,14,25,9.60
2014,11,18,14,26,9.60
2014,11,18,14,27,9.60
2014,11,18,14,28,9.60
2014,11,18,14,29,9.50
2014,11,18,14,30,9.50
2014,11,18,14,31,9.50
2014,11,18,14,32,9.60
2014,11,18,14,33,9.50
2014,11,18,14,34,9.60
2014,11,18,14,35,9.60
2014,11,18,14,36,9.60
2014,11,18,14,37,9.60
2014,11,18,14,38,9.60
2014,11,18,14,39,9.60
2014,11,18,14,40,9.60
2014,11,18,14,41,9.60
2014,11,18,14,42,9.70
2014,11,18,14,43,9.70
2014,11,18,14,44,9.70
2014,11,18,14,45,9.70
2014,11,18,14,46,9.70
2014,11,18,14,47,9.70
2014,11,18,14,48,9.70
2014,11,18,14,49,9.70
2014,11,18,14,50,9.70
2014,11,18,14,51,9.70
2014,11,18,14,52,9.60
2014,11,18,14,53,9.60
2014,11,18,14,54,9.60
2014,11,18,14,55,9.60
2014,11,18,14,56,9.60
2014,11,18,14,57,9.60
2014,11,18,14,58,9.50
2014,11,18,14,59,9.50
2014,11,18,15,00,9.50
2014,11,18,15,01,9.50
2014,11,18,15,02,9.40
2014,11,18,15,03,9.40
2014,11,18,15,04,9.40
2014,11,18,15,05,9.40
2014,11,18,15,06,9.40
2014,11,18,15,07,9.40
2014,11,18,15,08,9.40
2014,11,18,15,09,9.40
2014,11,18,15,10,9.40
2014,11,18,15,11,9.40
2014,11,18,15,12,9.40
2014,11,18,15,13,9.40
2014,11,18,15,14,9.40
2014,11,18,15,15,9.40
2014,11,18,15,16,9.40
2014,11,18,15,17,9.40
2014,11,18,15,18,9.40
2014,11,18,15,19,9.40
2014,11,18,15,20,9.40
2014,11,18,15,21,9.40
2014,11,18,15,22,9.40
2014,11,18,15,23,9.40
2014,11,18,15,24,9.40
2014,11,18,15,25,9.40
2014,11,18,15,26,9.40
2014,11,18,15,27,9.40
2014,11,18,15,28,9.40
2014,11,18,15,29,9.40
2014,11,18,15,30,9.30
2014,11,18,15,31,9.30
2014,11,18,15,32,9.30
2014,11,18,15,33,9.30
2014,11,18,15,34,9.30
2014,11,18,15,35,9.30
2014,11,18,15,36,9.30
2014,11,18,15,37,9.30
2014,11,18,15,38,9.30
2014,11,18,15,39,9.30
2014,11,18,15,40,9.30
2014,11,18,15,41,9.30
2014,11,18,15,42,9.30
2014,11,18,15,43,9.20
2014,11,18,15,44,9.20
2014,11,18,15,45,9.30
2014,11,18,15,46,9.30
2014,11,18,15,47,9.20
2014,11,18,15,48,9.20
2014,11,18,15,49,9.20
2014,11,18,15,50,9.20
2014,11,18,15,51,9.10
2014,11,18,15,52,9.10
2014,11,18,15,53,9.10
2014,11,18,15,54,9.10
2014,11,18,15,55,9.10
2014,11,18,15,56,9.10
2014,11,18,15,57,9.00
2014,11,18,15,58,9.00
2014,11,18,15,59,9.00
2014,11,18,16,00,9.00
2014,11,18,16,01,8.90
2014,11,18,16,02,8.90
2014,11,18,16,03,8.90
2014,11,18,16,04,8.90
2014,11,18,16,05,8.90
2014,11,18,16,06,8.80
2014,11,18,16,07,8.80
2014,11,18,16,08,8.80
2014,11,18,16,09,8.80
2014,11,18,16,10,8.70
2014,11,18,16,11,8.70
2014,11,18,16,12,8.70
2014,11,18,16,13,8.60
2014,11,18,16,14,8.60
2014,11,18,16,15,8.60
2014,11,18,16,16,8.50
2014,11,18,16,17,8.50
2014,11,18,16,18,8.40
2014,11,18,16,19,8.40
2014,11,18,16,20,8.30
2014,11,18,16,21,8.30
2014,11,18,16,22,8.30
2014,11,18,16,23,8.20
2014,11,18,16,24,8.20
2014,11,18,16,25,8.20
2014,11,18,16,26,8.10
2014,11,18,16,27,8.10
2014,11,18,16,28,8.10
2014,11,18,16,29,8.10
2014,11,18,16,30,8.00
2014,11,18,16,31,8.00
2014,11,18,16,32,8.00
2014,11,18,16,33,7.90
2014,11,18,16,34,7.90
2014,11,18,16,35,7.90
2014,11,18,16,36,7.90
2014,11,18,16,37,7.80
2014,11,18,16,38,7.80
2014,11,18,16,39,7.80
2014,11,18,16,40,7.80
2014,11,18,16,41,7.70
2014,11,18,16,42,7.70
2014,11,18,16,43,7.70
2014,11,18,16,44,7.70
2014,11,18,16,45,7.70
2014,11,18,16,46,7.70
2014,11,18,16,47,7.60
2014,11,18,16,48,7.60
2014,11,18,16,49,7.60
2014,11,18,16,50,7.60
2014,11,18,16,51,7.60
2014,11,18,16,52,7.60
2014,11,18,16,53,7.50
2014,11,18,16,54,7.50
2014,11,18,16,55,7.40
2014,11,18,16,56,7.40
2014,11,18,16,57,7.40
2014,11,18,16,58,7.40
2014,11,18,16,59,7.30
2014,11,18,17,00,7.30
2014,11,18,17,01,7.30
2014,11,18,17,02,7.30
2014,11,18,17,03,7.30
2014,11,18,17,04,7.20
2014,11,18,17,05,7.20
2014,11,18,17,06,7.20
2014,11,18,17,07,7.20
2014,11,18,17,08,7.20
2014,11,18,17,09,7.20
2014,11,18,17,10,7.20
2014,11,18,17,11,7.20
2014,11,18,17,12,7.20
2014,11,18,17,13,7.20
2014,11,18,17,14,7.20
2014,11,18,17,15,7.20
2014,11,18,17,16,7.20
2014,11,18,17,17,7.20
2014,11,18,17,18,7.20
2014,11,18,17,19,7.20
2014,11,18,17,20,7.20
2014,11,18,17,21,7.20
2014,11,18,17,22,7.20
2014,11,18,17,23,7.20
2014,11,18,17,24,7.20
2014,11,18,17,25,7.20
2014,11,18,17,26,7.20
2014,11,18,17,27,7.20
2014,11,18,17,28,7.20
2014,11,18,17,29,7.20
2014,11,18,17,30,7.20
2014,11,18,17,31,7.20
2014,11,18,17,32,7.20
2014,11,18,17,33,7.20
2014,11,18,17,34,7.20
2014,11,18,17,35,7.20
2014,11,18,17,36,7.20
2014,11,18,17,37,7.20
2014,11,18,17,38,7.20
2014,11,18,17,39,7.10
2014,11,18,17,40,7.10
2014,11,18,17,41,7.10
2014,11,18,17,42,7.10
2014,11,18,17,43,7.10
2014,11,18,17,44,7.10
2014,11,18,17,45,7.10
2014,11,18,17,46,7.10
2014,11,18,17,47,7.10
2014,11,18,17,48,7.00
2014,11,18,17,49,7.00
2014,11,18,17,50,7.00
2014,11,18,17,51,7.00
2014,11,18,17,52,7.00
2014,11,18,17,53,7.00
2014,11,18,17,54,7.00
2014,11,18,17,55,7.00
2014,11,18,17,56,7.00
2014,11,18,17,57,7.00
2014,11,18,17,58,7.00
2014,11,18,17,59,7.00
2014,11,18,18,00,7.00
2014,11,18,18,01,7.00
2014,11,18,18,02,7.00
2014,11,18,18,03,7.00
2014,11,18,18,04,7.00